Simultaneous Nadir Overpasses (SNOs) Predictions

Prediction of SNOs between TERRA and METOP-C Satellite Orbit:

Table of predicted SNOs for the next 14.0 days since TLE Epoch: 1/8/2022
Index Date (TERRA) Time (TERRA) Lat,Lon (TERRA) SZA (TERRA ) Date (METOP-C) Time (METOP-C) Lat,Lon (METOP-C) SZA (METOP-C ) Distance(km) Time Diff (sec)
1 01/09/2022 04:55:16 -81.22, -30.58 74.62 01/09/2022 04:55:06 -81.21, -30.58 74.63 0.32 10
2 01/09/2022 05:44:42 81.22, 137.15 105.39 01/09/2022 05:45:47 81.22, 136.97 105.40 3.04 65
3 01/11/2022 23:40:00 81.20,-132.05 104.89 01/11/2022 23:38:50 81.20,-131.90 104.89 2.55 70
4 01/12/2022 00:29:26 -81.22, 35.88 75.07 01/12/2022 00:29:29 -81.22, 35.89 75.07 0.29 3
5 01/14/2022 19:14:10 81.20, -65.66 104.38 01/14/2022 19:13:13 81.20, -65.52 104.38 2.60 57
6 01/14/2022 20:03:36 -81.22, 102.30 75.59 01/14/2022 20:03:52 -81.22, 102.34 75.57 0.73 16
7 01/17/2022 14:48:18 81.21, 1.04 103.86 01/17/2022 14:47:34 81.21, 1.23 103.86 3.17 44
8 01/17/2022 15:37:45 -81.21, 168.66 76.16 01/17/2022 15:38:14 -81.22, 168.78 76.13 2.09 29
9 01/20/2022 10:22:28 81.20, 67.33 103.23 01/20/2022 10:21:58 81.20, 67.19 103.20 2.45 30



Historial Predications of SNOs between TERRA and METOP-C
